<?xml version="1.0" encoding="UTF-8" standalone="no" ?>
<gpx xmlns="http://www.topografix.com/GPX/1/1" xmlns:xsi="http://www.w3.org/2001/XMLSchema-instance" xsi:schemaLocation="http://www.topografix.com/GPX/1/1 http://www.topografix.com/GPX/1/1/gpx.xsd" version="1.1" creator="VisuGPX - https://www.visugpx.com">
  <metadata>
    <name>Allaire_MoulinQuip_V2</name>
    <desc><![CDATA[Echappez-vous hors du temps par des sentiers en sous-bois et retrouvez-vous au c%u0153ur de la nature. De ce circuit, vous retiendrez l%u2019image de ce ruisseau invisible en été et tumultueux en hiver, de ces blocs de granit qui parsèment
la campagne, de ces hameaux empreints d%u2019histoire (Vaujouan,
Vaubily%u2026) et de l%u2019étang du Moulin de Quip, véritable hâvre de paix. Ce circuit de 12,5 km ne comporte pas de grandes dif%uFB01cultés pour les randonneurs amateurs.]]></desc>
  </metadata>
  <trk>
    <name><![CDATA[Allaire_MoulinQuipStJac_23.2km]]></name>
    <extensions>
      <line xmlns="http://www.topografix.com/GPX/gpx_style/0/2">
        <color>400040</color>
        <width>3</width>
      </line>
    </extensions>
    <trkseg>
      <trkpt lat="47.63661" lon="-2.16526">
        <ele>64.8</ele>
        <time>2008-01-22T00:00:00Z</time>
      </trkpt>
      <trkpt lat="47.63666" lon="-2.16549">
        <ele>65</ele>
        <time>2008-01-22T00:00:00Z</time>
      </trkpt>
      <trkpt lat="47.63661" lon="-2.16572">
        <ele>64.9</ele>
        <time>2008-01-22T00:00:00Z</time>
      </trkpt>
      <trkpt lat="47.63652" lon="-2.16654">
        <ele>65</ele>
        <time>2008-01-22T00:00:00Z</time>
      </trkpt>
      <trkpt lat="47.63656" lon="-2.16744">
        <ele>63.5</ele>
        <time>2008-01-22T00:00:00Z</time>
      </trkpt>
      <trkpt lat="47.63639" lon="-2.16847">
        <ele>64</ele>
        <time>2008-01-22T00:00:00Z</time>
      </trkpt>
      <trkpt lat="47.63532" lon="-2.17195">
        <ele>64</ele>
        <time>2008-01-22T00:00:00Z</time>
      </trkpt>
      <trkpt lat="47.63545" lon="-2.17319">
        <ele>64</ele>
        <time>2008-01-22T00:00:00Z</time>
      </trkpt>
      <trkpt lat="47.63722" lon="-2.17388">
        <ele>64</ele>
        <time>2008-01-22T00:00:00Z</time>
      </trkpt>
      <trkpt lat="47.63805" lon="-2.17469">
        <ele>63</ele>
      </trkpt>
      <trkpt lat="47.63873" lon="-2.17439">
        <ele>62.8</ele>
      </trkpt>
      <trkpt lat="47.63871" lon="-2.17187">
        <ele>61</ele>
      </trkpt>
      <trkpt lat="47.63911" lon="-2.17159">
        <ele>60.2</ele>
        <time>2008-01-22T00:00:00Z</time>
      </trkpt>
      <trkpt lat="47.6393" lon="-2.17162">
        <ele>60</ele>
      </trkpt>
      <trkpt lat="47.63961" lon="-2.17147">
        <ele>59.4</ele>
        <time>2008-01-22T00:00:00Z</time>
      </trkpt>
      <trkpt lat="47.63975" lon="-2.17157">
        <ele>60</ele>
        <time>2008-01-22T00:00:00Z</time>
      </trkpt>
      <trkpt lat="47.64023" lon="-2.17197">
        <ele>59</ele>
        <time>2008-01-22T00:00:00Z</time>
      </trkpt>
      <trkpt lat="47.64051" lon="-2.17232">
        <ele>59</ele>
        <time>2008-01-22T00:00:00Z</time>
      </trkpt>
      <trkpt lat="47.64084" lon="-2.17288">
        <ele>59</ele>
        <time>2008-01-22T00:00:00Z</time>
      </trkpt>
      <trkpt lat="47.64158" lon="-2.17439">
        <ele>60</ele>
        <time>2008-01-22T00:00:00Z</time>
      </trkpt>
      <trkpt lat="47.64195" lon="-2.17487">
        <ele>60</ele>
        <time>2008-01-22T00:00:00Z</time>
      </trkpt>
      <trkpt lat="47.64227" lon="-2.17551">
        <ele>61</ele>
        <time>2008-01-22T00:00:00Z</time>
      </trkpt>
      <trkpt lat="47.64225" lon="-2.17592">
        <ele>62</ele>
        <time>2008-01-22T00:00:00Z</time>
      </trkpt>
      <trkpt lat="47.64211" lon="-2.17659">
        <ele>63</ele>
        <time>2008-01-22T00:00:00Z</time>
      </trkpt>
      <trkpt lat="47.64266" lon="-2.17775">
        <ele>62</ele>
        <time>2008-01-22T00:00:00Z</time>
      </trkpt>
      <trkpt lat="47.64303" lon="-2.17842">
        <ele>62</ele>
        <time>2008-01-22T00:00:00Z</time>
      </trkpt>
      <trkpt lat="47.64343" lon="-2.17841">
        <ele>62</ele>
        <time>2008-01-22T00:00:00Z</time>
      </trkpt>
      <trkpt lat="47.64388" lon="-2.17848">
        <ele>61</ele>
        <time>2008-01-22T00:00:00Z</time>
      </trkpt>
      <trkpt lat="47.64428" lon="-2.17854">
        <ele>60</ele>
        <time>2008-01-22T00:00:00Z</time>
      </trkpt>
      <trkpt lat="47.64462" lon="-2.17855">
        <ele>60</ele>
        <time>2008-01-22T00:00:00Z</time>
      </trkpt>
      <trkpt lat="47.64414" lon="-2.17881">
        <ele>61</ele>
        <time>2008-01-22T00:00:00Z</time>
      </trkpt>
      <trkpt lat="47.64323" lon="-2.17958">
        <ele>63</ele>
        <time>2008-01-22T00:00:00Z</time>
      </trkpt>
      <trkpt lat="47.64213" lon="-2.18116">
        <ele>60</ele>
        <time>2008-01-22T00:00:00Z</time>
      </trkpt>
      <trkpt lat="47.64176" lon="-2.18162">
        <ele>61</ele>
        <time>2008-01-22T00:00:00Z</time>
      </trkpt>
      <trkpt lat="47.64218" lon="-2.183">
        <ele>64</ele>
        <time>2008-01-22T00:00:00Z</time>
      </trkpt>
      <trkpt lat="47.64186" lon="-2.18341">
        <ele>65</ele>
        <time>2008-01-22T00:00:00Z</time>
      </trkpt>
      <trkpt lat="47.64079" lon="-2.18396">
        <ele>67</ele>
        <time>2008-01-22T00:00:00Z</time>
      </trkpt>
      <trkpt lat="47.6398" lon="-2.18474">
        <ele>67</ele>
        <time>2008-01-22T00:00:00Z</time>
      </trkpt>
      <trkpt lat="47.63989" lon="-2.18543">
        <ele>68</ele>
        <time>2008-01-22T00:00:00Z</time>
      </trkpt>
      <trkpt lat="47.63999" lon="-2.18724">
        <ele>70</ele>
        <time>2008-01-22T00:00:00Z</time>
      </trkpt>
      <trkpt lat="47.64014" lon="-2.18827">
        <ele>69</ele>
        <time>2008-01-22T00:00:00Z</time>
      </trkpt>
      <trkpt lat="47.64012" lon="-2.18885">
        <ele>69</ele>
        <time>2008-01-22T00:00:00Z</time>
      </trkpt>
      <trkpt lat="47.64027" lon="-2.18989">
        <ele>70</ele>
        <time>2008-01-22T00:00:00Z</time>
      </trkpt>
      <trkpt lat="47.64023" lon="-2.19015">
        <ele>71</ele>
        <time>2008-01-22T00:00:00Z</time>
      </trkpt>
      <trkpt lat="47.64001" lon="-2.19051">
        <ele>71</ele>
        <time>2008-01-22T00:00:00Z</time>
      </trkpt>
      <trkpt lat="47.63973" lon="-2.19014">
        <ele>71</ele>
        <time>2008-01-22T00:00:00Z</time>
      </trkpt>
      <trkpt lat="47.63966" lon="-2.19029">
        <ele>71</ele>
        <time>2008-01-22T00:00:00Z</time>
      </trkpt>
      <trkpt lat="47.63981" lon="-2.19145">
        <ele>71</ele>
        <time>2008-01-22T00:00:00Z</time>
      </trkpt>
      <trkpt lat="47.64001" lon="-2.19262">
        <ele>73</ele>
        <time>2008-01-22T00:00:00Z</time>
      </trkpt>
      <trkpt lat="47.64004" lon="-2.19309">
        <ele>74</ele>
        <time>2008-01-22T00:00:00Z</time>
      </trkpt>
      <trkpt lat="47.64002" lon="-2.19382">
        <ele>75</ele>
        <time>2008-01-22T00:00:00Z</time>
      </trkpt>
      <trkpt lat="47.63989" lon="-2.19486">
        <ele>75</ele>
        <time>2008-01-22T00:00:00Z</time>
      </trkpt>
      <trkpt lat="47.64018" lon="-2.19673">
        <ele>76</ele>
        <time>2008-01-22T00:00:00Z</time>
      </trkpt>
      <trkpt lat="47.64187" lon="-2.20181">
        <ele>77</ele>
        <time>2008-01-22T00:00:00Z</time>
      </trkpt>
      <trkpt lat="47.64245" lon="-2.20354">
        <ele>81</ele>
        <time>2008-01-22T00:00:00Z</time>
      </trkpt>
      <trkpt lat="47.64344" lon="-2.20684">
        <ele>82</ele>
        <time>2008-01-22T00:00:00Z</time>
      </trkpt>
      <trkpt lat="47.64366" lon="-2.20975">
        <ele>82</ele>
        <time>2008-01-22T00:00:00Z</time>
      </trkpt>
      <trkpt lat="47.64425" lon="-2.21002">
        <ele>82</ele>
        <time>2008-01-22T00:00:00Z</time>
      </trkpt>
      <trkpt lat="47.64519" lon="-2.20957">
        <ele>76</ele>
        <time>2008-01-22T00:00:00Z</time>
      </trkpt>
      <trkpt lat="47.64691" lon="-2.2087">
        <ele>74</ele>
        <time>2008-01-22T00:00:00Z</time>
      </trkpt>
      <trkpt lat="47.64737" lon="-2.20879">
        <ele>74</ele>
        <time>2008-01-22T00:00:00Z</time>
      </trkpt>
      <trkpt lat="47.64735" lon="-2.20775">
        <ele>76</ele>
        <time>2008-01-22T00:00:00Z</time>
      </trkpt>
      <trkpt lat="47.64746" lon="-2.20707">
        <ele>76</ele>
        <time>2008-01-22T00:00:00Z</time>
      </trkpt>
      <trkpt lat="47.64782" lon="-2.20621">
        <ele>76</ele>
        <time>2008-01-22T00:00:00Z</time>
      </trkpt>
      <trkpt lat="47.64779" lon="-2.20535">
        <ele>75</ele>
        <time>2008-01-22T00:00:00Z</time>
      </trkpt>
      <trkpt lat="47.64802" lon="-2.20446">
        <ele>73</ele>
        <time>2008-01-22T00:00:00Z</time>
      </trkpt>
      <trkpt lat="47.64843" lon="-2.20387">
        <ele>70</ele>
        <time>2008-01-22T00:00:00Z</time>
      </trkpt>
      <trkpt lat="47.64884" lon="-2.20299">
        <ele>69</ele>
        <time>2008-01-22T00:00:00Z</time>
      </trkpt>
      <trkpt lat="47.64932" lon="-2.20237">
        <ele>62</ele>
        <time>2008-01-22T00:00:00Z</time>
      </trkpt>
      <trkpt lat="47.64994" lon="-2.20181">
        <ele>62</ele>
        <time>2008-01-22T00:00:00Z</time>
      </trkpt>
      <trkpt lat="47.65027" lon="-2.20129">
        <ele>62</ele>
        <time>2008-01-22T00:00:00Z</time>
      </trkpt>
      <trkpt lat="47.65055" lon="-2.20024">
        <ele>60</ele>
        <time>2008-01-22T00:00:00Z</time>
      </trkpt>
      <trkpt lat="47.65117" lon="-2.19938">
        <ele>55</ele>
        <time>2008-01-22T00:00:00Z</time>
      </trkpt>
      <trkpt lat="47.65151" lon="-2.19847">
        <ele>52</ele>
        <time>2008-01-22T00:00:00Z</time>
      </trkpt>
      <trkpt lat="47.65196" lon="-2.19769">
        <ele>50</ele>
        <time>2008-01-22T00:00:00Z</time>
      </trkpt>
      <trkpt lat="47.65271" lon="-2.19641">
        <ele>50</ele>
        <time>2008-01-22T00:00:00Z</time>
      </trkpt>
      <trkpt lat="47.65469" lon="-2.19635">
        <ele>52</ele>
        <time>2008-01-22T00:00:00Z</time>
      </trkpt>
      <trkpt lat="47.65518" lon="-2.19604">
        <ele>50</ele>
        <time>2008-01-22T00:00:00Z</time>
      </trkpt>
      <trkpt lat="47.65589" lon="-2.1962">
        <ele>50</ele>
        <time>2008-01-22T00:00:00Z</time>
      </trkpt>
      <trkpt lat="47.65656" lon="-2.19607">
        <ele>48</ele>
        <time>2008-01-22T00:00:00Z</time>
      </trkpt>
      <trkpt lat="47.65724" lon="-2.19416">
        <ele>45</ele>
        <time>2008-01-22T00:00:00Z</time>
      </trkpt>
      <trkpt lat="47.65514" lon="-2.19254">
        <ele>40</ele>
        <time>2008-01-22T00:00:00Z</time>
      </trkpt>
      <trkpt lat="47.65517" lon="-2.1918">
        <ele>43</ele>
        <time>2008-01-22T00:00:00Z</time>
      </trkpt>
      <trkpt lat="47.65492" lon="-2.19049">
        <ele>43</ele>
        <time>2008-01-22T00:00:00Z</time>
      </trkpt>
      <trkpt lat="47.65485" lon="-2.18977">
        <ele>43</ele>
        <time>2008-01-22T00:00:00Z</time>
      </trkpt>
      <trkpt lat="47.65495" lon="-2.18947">
        <ele>43</ele>
        <time>2008-01-22T00:00:00Z</time>
      </trkpt>
      <trkpt lat="47.65591" lon="-2.18874">
        <ele>42</ele>
        <time>2008-01-22T00:00:00Z</time>
      </trkpt>
      <trkpt lat="47.65681" lon="-2.18765">
        <ele>36</ele>
        <time>2008-01-22T00:00:00Z</time>
      </trkpt>
      <trkpt lat="47.65713" lon="-2.18735">
        <ele>35</ele>
        <time>2008-01-22T00:00:00Z</time>
      </trkpt>
      <trkpt lat="47.65742" lon="-2.18739">
        <ele>35</ele>
        <time>2008-01-22T00:00:00Z</time>
      </trkpt>
      <trkpt lat="47.65791" lon="-2.18794">
        <ele>38</ele>
        <time>2008-01-22T00:00:00Z</time>
      </trkpt>
      <trkpt lat="47.65848" lon="-2.18804">
        <ele>37</ele>
        <time>2008-01-22T00:00:00Z</time>
      </trkpt>
      <trkpt lat="47.65891" lon="-2.18827">
        <ele>37</ele>
        <time>2008-01-22T00:00:00Z</time>
      </trkpt>
      <trkpt lat="47.65993" lon="-2.18802">
        <ele>37</ele>
        <time>2008-01-22T00:00:00Z</time>
      </trkpt>
      <trkpt lat="47.66032" lon="-2.18827">
        <ele>38</ele>
        <time>2008-01-22T00:00:00Z</time>
      </trkpt>
      <trkpt lat="47.66094" lon="-2.18913">
        <ele>38</ele>
        <time>2008-01-22T00:00:00Z</time>
      </trkpt>
      <trkpt lat="47.66203" lon="-2.18954">
        <ele>38</ele>
        <time>2008-01-22T00:00:00Z</time>
      </trkpt>
      <trkpt lat="47.66257" lon="-2.18929">
        <ele>38</ele>
        <time>2008-01-22T00:00:00Z</time>
      </trkpt>
      <trkpt lat="47.66325" lon="-2.1892">
        <ele>38</ele>
        <time>2008-01-22T00:00:00Z</time>
      </trkpt>
      <trkpt lat="47.66347" lon="-2.18885">
        <ele>29</ele>
        <time>2008-01-22T00:00:00Z</time>
        <extensions>
          <visugpx:TrkExtension xmlns:visugpx="https://www.visugpx.com/editgpx/">
            <visugpx:node>1</visugpx:node>
            </visugpx:TrkExtension>
        </extensions>
      </trkpt>
      <trkpt lat="47.66344" lon="-2.18952">
        <ele>38.9</ele>
      </trkpt>
      <trkpt lat="47.66382" lon="-2.18941">
        <ele>37.6</ele>
      </trkpt>
      <trkpt lat="47.66382" lon="-2.1897">
        <ele>42.2</ele>
      </trkpt>
      <trkpt lat="47.6639" lon="-2.19001">
        <ele>45.1</ele>
      </trkpt>
      <trkpt lat="47.66395" lon="-2.19004">
        <ele>45.5</ele>
        <extensions>
          <visugpx:TrkExtension xmlns:visugpx="https://www.visugpx.com/editgpx/">
            <visugpx:node>2</visugpx:node>
            </visugpx:TrkExtension>
        </extensions>
      </trkpt>
      <trkpt lat="47.66398" lon="-2.19005">
        <ele>45.7</ele>
      </trkpt>
      <trkpt lat="47.6641" lon="-2.19003">
        <ele>46</ele>
      </trkpt>
      <trkpt lat="47.66431" lon="-2.19014">
        <ele>47.8</ele>
      </trkpt>
      <trkpt lat="47.66432" lon="-2.1903">
        <ele>48.6</ele>
      </trkpt>
      <trkpt lat="47.66445" lon="-2.19044">
        <ele>49.6</ele>
      </trkpt>
      <trkpt lat="47.66444" lon="-2.19046">
        <ele>49.6</ele>
        <extensions>
          <visugpx:TrkExtension xmlns:visugpx="https://www.visugpx.com/editgpx/">
            <visugpx:node>3</visugpx:node>
            </visugpx:TrkExtension>
        </extensions>
      </trkpt>
      <trkpt lat="47.6643" lon="-2.19067">
        <ele>49.9</ele>
      </trkpt>
      <trkpt lat="47.66362" lon="-2.19211">
        <ele>47</ele>
      </trkpt>
      <trkpt lat="47.66347" lon="-2.19236">
        <ele>46</ele>
      </trkpt>
      <trkpt lat="47.66331" lon="-2.19253">
        <ele>46.1</ele>
        <extensions>
          <visugpx:TrkExtension xmlns:visugpx="https://www.visugpx.com/editgpx/">
            <visugpx:node>4</visugpx:node>
            </visugpx:TrkExtension>
        </extensions>
      </trkpt>
      <trkpt lat="47.66331" lon="-2.19253">
        <ele>46.1</ele>
      </trkpt>
      <trkpt lat="47.66266" lon="-2.1929">
        <ele>47.1</ele>
      </trkpt>
      <trkpt lat="47.66245" lon="-2.19304">
        <ele>48.2</ele>
      </trkpt>
      <trkpt lat="47.66193" lon="-2.19373">
        <ele>51</ele>
      </trkpt>
      <trkpt lat="47.66175" lon="-2.194">
        <ele>51.4</ele>
      </trkpt>
      <trkpt lat="47.66101" lon="-2.19483">
        <ele>55.4</ele>
      </trkpt>
      <trkpt lat="47.66038" lon="-2.19549">
        <ele>57.3</ele>
      </trkpt>
      <trkpt lat="47.65987" lon="-2.19607">
        <ele>56.5</ele>
      </trkpt>
      <trkpt lat="47.65993" lon="-2.19618">
        <ele>57</ele>
      </trkpt>
      <trkpt lat="47.65994" lon="-2.19621">
        <ele>57.1</ele>
        <extensions>
          <visugpx:TrkExtension xmlns:visugpx="https://www.visugpx.com/editgpx/">
            <visugpx:node>5</visugpx:node>
            </visugpx:TrkExtension>
        </extensions>
      </trkpt>
      <trkpt lat="47.65999" lon="-2.1964">
        <ele>58</ele>
      </trkpt>
      <trkpt lat="47.65999" lon="-2.19678">
        <ele>59.4</ele>
      </trkpt>
      <trkpt lat="47.65996" lon="-2.19756">
        <ele>63</ele>
      </trkpt>
      <trkpt lat="47.66" lon="-2.19774">
        <ele>63.9</ele>
      </trkpt>
      <trkpt lat="47.66003" lon="-2.1978">
        <ele>64.2</ele>
      </trkpt>
      <trkpt lat="47.66008" lon="-2.19789">
        <ele>64.6</ele>
      </trkpt>
      <trkpt lat="47.66009" lon="-2.19792">
        <ele>64.7</ele>
        <extensions>
          <visugpx:TrkExtension xmlns:visugpx="https://www.visugpx.com/editgpx/">
            <visugpx:node>6</visugpx:node>
            </visugpx:TrkExtension>
        </extensions>
      </trkpt>
      <trkpt lat="47.66008" lon="-2.19789">
        <ele>64.6</ele>
      </trkpt>
      <trkpt lat="47.6606" lon="-2.19787">
        <ele>66</ele>
      </trkpt>
      <trkpt lat="47.66102" lon="-2.19803">
        <ele>65.9</ele>
        <extensions>
          <visugpx:TrkExtension xmlns:visugpx="https://www.visugpx.com/editgpx/">
            <visugpx:node>7</visugpx:node>
            </visugpx:TrkExtension>
        </extensions>
      </trkpt>
      <trkpt lat="47.6629" lon="-2.19875">
        <ele>58.6</ele>
      </trkpt>
      <trkpt lat="47.66397" lon="-2.19933">
        <ele>61</ele>
      </trkpt>
      <trkpt lat="47.66402" lon="-2.19942">
        <ele>61</ele>
        <extensions>
          <visugpx:TrkExtension xmlns:visugpx="https://www.visugpx.com/editgpx/">
            <visugpx:node>8</visugpx:node>
            </visugpx:TrkExtension>
        </extensions>
      </trkpt>
      <trkpt lat="47.6641" lon="-2.19973">
        <ele>61</ele>
      </trkpt>
      <trkpt lat="47.66474" lon="-2.20024">
        <ele>59.9</ele>
      </trkpt>
      <trkpt lat="47.66532" lon="-2.20065">
        <ele>60.4</ele>
      </trkpt>
      <trkpt lat="47.66563" lon="-2.20082">
        <ele>61</ele>
        <extensions>
          <visugpx:TrkExtension xmlns:visugpx="https://www.visugpx.com/editgpx/">
            <visugpx:node>9</visugpx:node>
            </visugpx:TrkExtension>
        </extensions>
      </trkpt>
      <trkpt lat="47.66565" lon="-2.20083">
        <ele>61</ele>
      </trkpt>
      <trkpt lat="47.6668" lon="-2.20088">
        <ele>60</ele>
      </trkpt>
      <trkpt lat="47.6668" lon="-2.20094">
        <ele>60</ele>
        <extensions>
          <visugpx:TrkExtension xmlns:visugpx="https://www.visugpx.com/editgpx/">
            <visugpx:node>10</visugpx:node>
            </visugpx:TrkExtension>
        </extensions>
      </trkpt>
      <trkpt lat="47.66681" lon="-2.20115">
        <ele>60</ele>
      </trkpt>
      <trkpt lat="47.66653" lon="-2.203">
        <ele>60.2</ele>
      </trkpt>
      <trkpt lat="47.66652" lon="-2.20328">
        <ele>59.6</ele>
      </trkpt>
      <trkpt lat="47.66654" lon="-2.20343">
        <ele>59.3</ele>
        <extensions>
          <visugpx:TrkExtension xmlns:visugpx="https://www.visugpx.com/editgpx/">
            <visugpx:node>11</visugpx:node>
            </visugpx:TrkExtension>
        </extensions>
      </trkpt>
      <trkpt lat="47.66656" lon="-2.2036">
        <ele>59</ele>
      </trkpt>
      <trkpt lat="47.66679" lon="-2.20376">
        <ele>58.2</ele>
      </trkpt>
      <trkpt lat="47.66753" lon="-2.20403">
        <ele>54.9</ele>
      </trkpt>
      <trkpt lat="47.6677" lon="-2.20412">
        <ele>54.2</ele>
        <extensions>
          <visugpx:TrkExtension xmlns:visugpx="https://www.visugpx.com/editgpx/">
            <visugpx:node>12</visugpx:node>
            </visugpx:TrkExtension>
        </extensions>
      </trkpt>
      <trkpt lat="47.6677" lon="-2.20412">
        <ele>54.2</ele>
      </trkpt>
      <trkpt lat="47.66751" lon="-2.20434">
        <ele>53.4</ele>
      </trkpt>
      <trkpt lat="47.66741" lon="-2.20455">
        <ele>53.3</ele>
      </trkpt>
      <trkpt lat="47.66735" lon="-2.20487">
        <ele>52.8</ele>
      </trkpt>
      <trkpt lat="47.66733" lon="-2.20524">
        <ele>52.1</ele>
        <extensions>
          <visugpx:TrkExtension xmlns:visugpx="https://www.visugpx.com/editgpx/">
            <visugpx:node>13</visugpx:node>
            </visugpx:TrkExtension>
        </extensions>
      </trkpt>
      <trkpt lat="47.66737" lon="-2.20539">
        <ele>52</ele>
      </trkpt>
      <trkpt lat="47.66749" lon="-2.20558">
        <ele>51.9</ele>
      </trkpt>
      <trkpt lat="47.66831" lon="-2.20632">
        <ele>47</ele>
      </trkpt>
      <trkpt lat="47.6683" lon="-2.20638">
        <ele>47</ele>
        <extensions>
          <visugpx:TrkExtension xmlns:visugpx="https://www.visugpx.com/editgpx/">
            <visugpx:node>14</visugpx:node>
            </visugpx:TrkExtension>
        </extensions>
      </trkpt>
      <trkpt lat="47.66809" lon="-2.20712">
        <ele>42.6</ele>
      </trkpt>
      <trkpt lat="47.668" lon="-2.20751">
        <ele>41.9</ele>
      </trkpt>
      <trkpt lat="47.66796" lon="-2.2079">
        <ele>39.3</ele>
      </trkpt>
      <trkpt lat="47.66793" lon="-2.20843">
        <ele>34.9</ele>
      </trkpt>
      <trkpt lat="47.66794" lon="-2.20859">
        <ele>33.5</ele>
        <extensions>
          <visugpx:TrkExtension xmlns:visugpx="https://www.visugpx.com/editgpx/">
            <visugpx:node>15</visugpx:node>
            </visugpx:TrkExtension>
        </extensions>
      </trkpt>
      <trkpt lat="47.66794" lon="-2.20867">
        <ele>32.9</ele>
      </trkpt>
      <trkpt lat="47.66796" lon="-2.20878">
        <ele>32.2</ele>
      </trkpt>
      <trkpt lat="47.66824" lon="-2.20949">
        <ele>31.3</ele>
      </trkpt>
      <trkpt lat="47.66853" lon="-2.21016">
        <ele>32.4</ele>
      </trkpt>
      <trkpt lat="47.66867" lon="-2.21054">
        <ele>32.8</ele>
      </trkpt>
      <trkpt lat="47.66903" lon="-2.21126">
        <ele>31.2</ele>
      </trkpt>
      <trkpt lat="47.66907" lon="-2.21144">
        <ele>30</ele>
      </trkpt>
      <trkpt lat="47.66907" lon="-2.21151">
        <ele>29.5</ele>
        <extensions>
          <visugpx:TrkExtension xmlns:visugpx="https://www.visugpx.com/editgpx/">
            <visugpx:node>16</visugpx:node>
            </visugpx:TrkExtension>
        </extensions>
      </trkpt>
      <trkpt lat="47.66908" lon="-2.21209">
        <ele>27.4</ele>
      </trkpt>
      <trkpt lat="47.66905" lon="-2.21224">
        <ele>27.1</ele>
        <extensions>
          <visugpx:TrkExtension xmlns:visugpx="https://www.visugpx.com/editgpx/">
            <visugpx:node>17</visugpx:node>
            </visugpx:TrkExtension>
        </extensions>
      </trkpt>
      <trkpt lat="47.66904" lon="-2.2123">
        <ele>26.8</ele>
      </trkpt>
      <trkpt lat="47.6689" lon="-2.21244">
        <ele>25.3</ele>
      </trkpt>
      <trkpt lat="47.66881" lon="-2.21249">
        <ele>26.2</ele>
      </trkpt>
      <trkpt lat="47.66878" lon="-2.21241">
        <ele>26.8</ele>
        <extensions>
          <visugpx:TrkExtension xmlns:visugpx="https://www.visugpx.com/editgpx/">
            <visugpx:node>18</visugpx:node>
            </visugpx:TrkExtension>
        </extensions>
      </trkpt>
      <trkpt lat="47.66881" lon="-2.21249">
        <ele>26.2</ele>
      </trkpt>
      <trkpt lat="47.66892" lon="-2.21303">
        <ele>26</ele>
      </trkpt>
      <trkpt lat="47.66901" lon="-2.21321">
        <ele>25.4</ele>
      </trkpt>
      <trkpt lat="47.66918" lon="-2.21334">
        <ele>25.1</ele>
      </trkpt>
      <trkpt lat="47.66912" lon="-2.21337">
        <ele>25</ele>
        <extensions>
          <visugpx:TrkExtension xmlns:visugpx="https://www.visugpx.com/editgpx/">
            <visugpx:node>19</visugpx:node>
            </visugpx:TrkExtension>
        </extensions>
      </trkpt>
      <trkpt lat="47.66918" lon="-2.21334">
        <ele>25.1</ele>
      </trkpt>
      <trkpt lat="47.66993" lon="-2.21372">
        <ele>24.6</ele>
      </trkpt>
      <trkpt lat="47.66996" lon="-2.21371">
        <ele>24.6</ele>
        <extensions>
          <visugpx:TrkExtension xmlns:visugpx="https://www.visugpx.com/editgpx/">
            <visugpx:node>20</visugpx:node>
            </visugpx:TrkExtension>
        </extensions>
      </trkpt>
      <trkpt lat="47.67064" lon="-2.21334">
        <ele>22.7</ele>
      </trkpt>
      <trkpt lat="47.67079" lon="-2.21331">
        <ele>22.4</ele>
      </trkpt>
      <trkpt lat="47.67087" lon="-2.2133">
        <ele>22.3</ele>
        <extensions>
          <visugpx:TrkExtension xmlns:visugpx="https://www.visugpx.com/editgpx/">
            <visugpx:node>21</visugpx:node>
            </visugpx:TrkExtension>
        </extensions>
      </trkpt>
      <trkpt lat="47.67099" lon="-2.21328">
        <ele>22.4</ele>
      </trkpt>
      <trkpt lat="47.6721" lon="-2.21345">
        <ele>23.1</ele>
      </trkpt>
      <trkpt lat="47.67231" lon="-2.21354">
        <ele>23.5</ele>
      </trkpt>
      <trkpt lat="47.67234" lon="-2.21357">
        <ele>23.7</ele>
        <extensions>
          <visugpx:TrkExtension xmlns:visugpx="https://www.visugpx.com/editgpx/">
            <visugpx:node>22</visugpx:node>
            </visugpx:TrkExtension>
        </extensions>
      </trkpt>
      <trkpt lat="47.67245" lon="-2.21368">
        <ele>24.5</ele>
      </trkpt>
      <trkpt lat="47.67301" lon="-2.21481">
        <ele>30.8</ele>
      </trkpt>
      <trkpt lat="47.67311" lon="-2.21499">
        <ele>31.7</ele>
      </trkpt>
      <trkpt lat="47.67328" lon="-2.21513">
        <ele>32.1</ele>
        <extensions>
          <visugpx:TrkExtension xmlns:visugpx="https://www.visugpx.com/editgpx/">
            <visugpx:node>23</visugpx:node>
            </visugpx:TrkExtension>
        </extensions>
      </trkpt>
      <trkpt lat="47.67328" lon="-2.21514">
        <ele>32.2</ele>
      </trkpt>
      <trkpt lat="47.67353" lon="-2.21521">
        <ele>31.8</ele>
      </trkpt>
      <trkpt lat="47.67422" lon="-2.21523">
        <ele>32.5</ele>
      </trkpt>
      <trkpt lat="47.67428" lon="-2.21521">
        <ele>33</ele>
      </trkpt>
      <trkpt lat="47.67428" lon="-2.21518">
        <ele>32.9</ele>
        <extensions>
          <visugpx:TrkExtension xmlns:visugpx="https://www.visugpx.com/editgpx/">
            <visugpx:node>24</visugpx:node>
            </visugpx:TrkExtension>
        </extensions>
      </trkpt>
      <trkpt lat="47.67428" lon="-2.21521">
        <ele>33</ele>
      </trkpt>
      <trkpt lat="47.67466" lon="-2.21512">
        <ele>35.1</ele>
      </trkpt>
      <trkpt lat="47.67511" lon="-2.21517">
        <ele>36.8</ele>
      </trkpt>
      <trkpt lat="47.67567" lon="-2.21539">
        <ele>36.8</ele>
      </trkpt>
      <trkpt lat="47.67605" lon="-2.21552">
        <ele>36.1</ele>
      </trkpt>
      <trkpt lat="47.67609" lon="-2.21551">
        <ele>35.9</ele>
        <extensions>
          <visugpx:TrkExtension xmlns:visugpx="https://www.visugpx.com/editgpx/">
            <visugpx:node>25</visugpx:node>
            </visugpx:TrkExtension>
        </extensions>
      </trkpt>
      <trkpt lat="47.67633" lon="-2.21549">
        <ele>35</ele>
      </trkpt>
      <trkpt lat="47.67658" lon="-2.2154">
        <ele>34.4</ele>
      </trkpt>
      <trkpt lat="47.67681" lon="-2.2154">
        <ele>33.9</ele>
      </trkpt>
      <trkpt lat="47.67743" lon="-2.21562">
        <ele>32.5</ele>
      </trkpt>
      <trkpt lat="47.67766" lon="-2.21562">
        <ele>32.2</ele>
      </trkpt>
      <trkpt lat="47.67812" lon="-2.21557">
        <ele>31.1</ele>
      </trkpt>
      <trkpt lat="47.6782" lon="-2.21558">
        <ele>31.1</ele>
        <extensions>
          <visugpx:TrkExtension xmlns:visugpx="https://www.visugpx.com/editgpx/">
            <visugpx:node>26</visugpx:node>
            </visugpx:TrkExtension>
        </extensions>
      </trkpt>
      <trkpt lat="47.67823" lon="-2.21559">
        <ele>31.1</ele>
      </trkpt>
      <trkpt lat="47.67855" lon="-2.21568">
        <ele>31.8</ele>
      </trkpt>
      <trkpt lat="47.67992" lon="-2.21629">
        <ele>25</ele>
      </trkpt>
      <trkpt lat="47.68006" lon="-2.21637">
        <ele>23.6</ele>
      </trkpt>
      <trkpt lat="47.68012" lon="-2.21643">
        <ele>23.2</ele>
        <extensions>
          <visugpx:TrkExtension xmlns:visugpx="https://www.visugpx.com/editgpx/">
            <visugpx:node>27</visugpx:node>
            </visugpx:TrkExtension>
        </extensions>
      </trkpt>
      <trkpt lat="47.68013" lon="-2.21644">
        <ele>23.2</ele>
      </trkpt>
      <trkpt lat="47.6802" lon="-2.21637">
        <ele>22.5</ele>
      </trkpt>
      <trkpt lat="47.68028" lon="-2.21633">
        <ele>21.8</ele>
      </trkpt>
      <trkpt lat="47.68076" lon="-2.21634">
        <ele>24.1</ele>
      </trkpt>
      <trkpt lat="47.68105" lon="-2.21627">
        <ele>26.4</ele>
      </trkpt>
      <trkpt lat="47.6811" lon="-2.21625">
        <ele>26.5</ele>
      </trkpt>
      <trkpt lat="47.68121" lon="-2.21621">
        <ele>27.2</ele>
        <extensions>
          <visugpx:TrkExtension xmlns:visugpx="https://www.visugpx.com/editgpx/">
            <visugpx:node>28</visugpx:node>
            </visugpx:TrkExtension>
        </extensions>
      </trkpt>
      <trkpt lat="47.6811" lon="-2.21625">
        <ele>26.5</ele>
      </trkpt>
      <trkpt lat="47.68111" lon="-2.21617">
        <ele>26.2</ele>
      </trkpt>
      <trkpt lat="47.68115" lon="-2.21609">
        <ele>26.8</ele>
      </trkpt>
      <trkpt lat="47.6815" lon="-2.21579">
        <ele>29.7</ele>
      </trkpt>
      <trkpt lat="47.6819" lon="-2.21565">
        <ele>31.6</ele>
      </trkpt>
      <trkpt lat="47.68207" lon="-2.21561">
        <ele>32.3</ele>
      </trkpt>
      <trkpt lat="47.68218" lon="-2.21566">
        <ele>32.5</ele>
      </trkpt>
      <trkpt lat="47.68227" lon="-2.21575">
        <ele>33.2</ele>
      </trkpt>
      <trkpt lat="47.68235" lon="-2.21571">
        <ele>34.8</ele>
      </trkpt>
      <trkpt lat="47.68237" lon="-2.2157">
        <ele>35.2</ele>
      </trkpt>
      <trkpt lat="47.68246" lon="-2.21565">
        <ele>36.7</ele>
      </trkpt>
      <trkpt lat="47.68254" lon="-2.2156">
        <ele>37.1</ele>
      </trkpt>
      <trkpt lat="47.68266" lon="-2.21553">
        <ele>37.1</ele>
      </trkpt>
      <trkpt lat="47.68291" lon="-2.21546">
        <ele>38.8</ele>
      </trkpt>
      <trkpt lat="47.68382" lon="-2.2154">
        <ele>48.7</ele>
      </trkpt>
      <trkpt lat="47.68404" lon="-2.21536">
        <ele>49.8</ele>
      </trkpt>
      <trkpt lat="47.68418" lon="-2.21532">
        <ele>50.2</ele>
      </trkpt>
      <trkpt lat="47.68426" lon="-2.21527">
        <ele>50.7</ele>
      </trkpt>
      <trkpt lat="47.68453" lon="-2.21509">
        <ele>53</ele>
        <extensions>
          <visugpx:TrkExtension xmlns:visugpx="https://www.visugpx.com/editgpx/">
            <visugpx:node>29</visugpx:node>
            </visugpx:TrkExtension>
        </extensions>
      </trkpt>
      <trkpt lat="47.68458" lon="-2.21505">
        <ele>53.3</ele>
      </trkpt>
      <trkpt lat="47.68448" lon="-2.21484">
        <ele>53.1</ele>
      </trkpt>
      <trkpt lat="47.6844" lon="-2.21454">
        <ele>52.8</ele>
      </trkpt>
      <trkpt lat="47.68427" lon="-2.21415">
        <ele>52.7</ele>
      </trkpt>
      <trkpt lat="47.6842" lon="-2.21394">
        <ele>52.2</ele>
      </trkpt>
      <trkpt lat="47.68406" lon="-2.21347">
        <ele>52.3</ele>
      </trkpt>
      <trkpt lat="47.68402" lon="-2.21328">
        <ele>52.5</ele>
      </trkpt>
      <trkpt lat="47.68401" lon="-2.21315">
        <ele>52.4</ele>
      </trkpt>
      <trkpt lat="47.68313" lon="-2.21245">
        <ele>49.3</ele>
      </trkpt>
      <trkpt lat="47.68242" lon="-2.21157">
        <ele>46.6</ele>
      </trkpt>
      <trkpt lat="47.68221" lon="-2.21123">
        <ele>44.4</ele>
      </trkpt>
      <trkpt lat="47.68216" lon="-2.21109">
        <ele>43.8</ele>
      </trkpt>
      <trkpt lat="47.68198" lon="-2.21035">
        <ele>41.2</ele>
      </trkpt>
      <trkpt lat="47.6818" lon="-2.20953">
        <ele>37.3</ele>
      </trkpt>
      <trkpt lat="47.68171" lon="-2.20904">
        <ele>35.8</ele>
      </trkpt>
      <trkpt lat="47.68168" lon="-2.20851">
        <ele>34.3</ele>
      </trkpt>
      <trkpt lat="47.68164" lon="-2.20694">
        <ele>29.3</ele>
      </trkpt>
      <trkpt lat="47.6816" lon="-2.20694">
        <ele>29.8</ele>
        <extensions>
          <visugpx:TrkExtension xmlns:visugpx="https://www.visugpx.com/editgpx/">
            <visugpx:node>30</visugpx:node>
            </visugpx:TrkExtension>
        </extensions>
      </trkpt>
      <trkpt lat="47.68164" lon="-2.20694">
        <ele>29.3</ele>
      </trkpt>
      <trkpt lat="47.68238" lon="-2.20697">
        <ele>33.5</ele>
        <extensions>
          <visugpx:TrkExtension xmlns:visugpx="https://www.visugpx.com/editgpx/">
            <visugpx:node>31</visugpx:node>
            </visugpx:TrkExtension>
        </extensions>
      </trkpt>
      <trkpt lat="47.68239" lon="-2.20698">
        <ele>33.5</ele>
      </trkpt>
      <trkpt lat="47.68143" lon="-2.19979">
        <ele>14</ele>
        <extensions>
          <visugpx:TrkExtension xmlns:visugpx="https://www.visugpx.com/editgpx/">
            <visugpx:node>32</visugpx:node>
            </visugpx:TrkExtension>
        </extensions>
      </trkpt>
      <trkpt lat="47.68143" lon="-2.19975">
        <ele>13.6</ele>
      </trkpt>
      <trkpt lat="47.68047" lon="-2.20069">
        <ele>13.7</ele>
      </trkpt>
      <trkpt lat="47.68039" lon="-2.20067">
        <ele>12.7</ele>
      </trkpt>
      <trkpt lat="47.6803" lon="-2.20046">
        <ele>11</ele>
      </trkpt>
      <trkpt lat="47.68032" lon="-2.20015">
        <ele>11.2</ele>
      </trkpt>
      <trkpt lat="47.68036" lon="-2.1983">
        <ele>12.2</ele>
      </trkpt>
      <trkpt lat="47.68055" lon="-2.19675">
        <ele>11.1</ele>
      </trkpt>
      <trkpt lat="47.68057" lon="-2.19554">
        <ele>12.8</ele>
      </trkpt>
      <trkpt lat="47.68059" lon="-2.19497">
        <ele>14.2</ele>
        <extensions>
          <visugpx:TrkExtension xmlns:visugpx="https://www.visugpx.com/editgpx/">
            <visugpx:node>33</visugpx:node>
            </visugpx:TrkExtension>
        </extensions>
      </trkpt>
      <trkpt lat="47.68059" lon="-2.19487">
        <ele>14.8</ele>
      </trkpt>
      <trkpt lat="47.67978" lon="-2.19276">
        <ele>16.8</ele>
      </trkpt>
      <trkpt lat="47.67981" lon="-2.19258">
        <ele>16.9</ele>
      </trkpt>
      <trkpt lat="47.68008" lon="-2.19218">
        <ele>18.7</ele>
      </trkpt>
      <trkpt lat="47.68037" lon="-2.1919">
        <ele>20.4</ele>
      </trkpt>
      <trkpt lat="47.68082" lon="-2.19157">
        <ele>22</ele>
        <extensions>
          <visugpx:TrkExtension xmlns:visugpx="https://www.visugpx.com/editgpx/">
            <visugpx:node>34</visugpx:node>
            </visugpx:TrkExtension>
        </extensions>
      </trkpt>
      <trkpt lat="47.68086" lon="-2.19154">
        <ele>21.8</ele>
      </trkpt>
      <trkpt lat="47.68058" lon="-2.19105">
        <ele>23.2</ele>
      </trkpt>
      <trkpt lat="47.6802" lon="-2.1905">
        <ele>25.1</ele>
      </trkpt>
      <trkpt lat="47.67931" lon="-2.1893">
        <ele>28.5</ele>
      </trkpt>
      <trkpt lat="47.67926" lon="-2.1892">
        <ele>28.9</ele>
        <extensions>
          <visugpx:TrkExtension xmlns:visugpx="https://www.visugpx.com/editgpx/">
            <visugpx:node>35</visugpx:node>
            </visugpx:TrkExtension>
        </extensions>
      </trkpt>
      <trkpt lat="47.67923" lon="-2.18913">
        <ele>29</ele>
      </trkpt>
      <trkpt lat="47.67891" lon="-2.1893">
        <ele>28.5</ele>
      </trkpt>
      <trkpt lat="47.67882" lon="-2.18943">
        <ele>28.3</ele>
      </trkpt>
      <trkpt lat="47.67874" lon="-2.18965">
        <ele>28.2</ele>
      </trkpt>
      <trkpt lat="47.67866" lon="-2.19018">
        <ele>26.5</ele>
      </trkpt>
      <trkpt lat="47.67865" lon="-2.19081">
        <ele>23.1</ele>
      </trkpt>
      <trkpt lat="47.67862" lon="-2.19092">
        <ele>22.7</ele>
      </trkpt>
      <trkpt lat="47.6786" lon="-2.19098">
        <ele>22.7</ele>
      </trkpt>
      <trkpt lat="47.67855" lon="-2.19102">
        <ele>23.6</ele>
      </trkpt>
      <trkpt lat="47.67846" lon="-2.19103">
        <ele>25.6</ele>
      </trkpt>
      <trkpt lat="47.67827" lon="-2.191">
        <ele>26.9</ele>
      </trkpt>
      <trkpt lat="47.6782" lon="-2.19103">
        <ele>25.3</ele>
      </trkpt>
      <trkpt lat="47.67816" lon="-2.19079">
        <ele>24.7</ele>
      </trkpt>
      <trkpt lat="47.67816" lon="-2.19064">
        <ele>24.8</ele>
      </trkpt>
      <trkpt lat="47.67844" lon="-2.18921">
        <ele>28.3</ele>
      </trkpt>
      <trkpt lat="47.67843" lon="-2.18917">
        <ele>28.3</ele>
        <extensions>
          <visugpx:TrkExtension xmlns:visugpx="https://www.visugpx.com/editgpx/">
            <visugpx:node>36</visugpx:node>
            </visugpx:TrkExtension>
        </extensions>
      </trkpt>
      <trkpt lat="47.67841" lon="-2.18886">
        <ele>29.3</ele>
      </trkpt>
      <trkpt lat="47.67741" lon="-2.18673">
        <ele>32</ele>
      </trkpt>
      <trkpt lat="47.67675" lon="-2.18534">
        <ele>34</ele>
        <extensions>
          <visugpx:TrkExtension xmlns:visugpx="https://www.visugpx.com/editgpx/">
            <visugpx:node>37</visugpx:node>
            </visugpx:TrkExtension>
        </extensions>
      </trkpt>
      <trkpt lat="47.67673" lon="-2.18529">
        <ele>34</ele>
      </trkpt>
      <trkpt lat="47.67575" lon="-2.18746">
        <ele>32.3</ele>
      </trkpt>
      <trkpt lat="47.67429" lon="-2.19097">
        <ele>36.1</ele>
        <extensions>
          <visugpx:TrkExtension xmlns:visugpx="https://www.visugpx.com/editgpx/">
            <visugpx:node>38</visugpx:node>
            </visugpx:TrkExtension>
        </extensions>
      </trkpt>
      <trkpt lat="47.67427" lon="-2.19102">
        <ele>36.3</ele>
      </trkpt>
      <trkpt lat="47.67411" lon="-2.19066">
        <ele>36.7</ele>
      </trkpt>
      <trkpt lat="47.67402" lon="-2.19053">
        <ele>37</ele>
      </trkpt>
      <trkpt lat="47.67355" lon="-2.19019">
        <ele>38.7</ele>
      </trkpt>
      <trkpt lat="47.67349" lon="-2.19016">
        <ele>38.6</ele>
        <extensions>
          <visugpx:TrkExtension xmlns:visugpx="https://www.visugpx.com/editgpx/">
            <visugpx:node>39</visugpx:node>
            </visugpx:TrkExtension>
        </extensions>
      </trkpt>
      <trkpt lat="47.67314" lon="-2.19">
        <ele>38.7</ele>
      </trkpt>
      <trkpt lat="47.67129" lon="-2.18985">
        <ele>37.5</ele>
      </trkpt>
      <trkpt lat="47.67068" lon="-2.18964">
        <ele>34.8</ele>
      </trkpt>
      <trkpt lat="47.67057" lon="-2.18989">
        <ele>34.7</ele>
      </trkpt>
      <trkpt lat="47.67046" lon="-2.19065">
        <ele>36.8</ele>
      </trkpt>
      <trkpt lat="47.67012" lon="-2.19342">
        <ele>56.2</ele>
      </trkpt>
      <trkpt lat="47.66997" lon="-2.19437">
        <ele>61.7</ele>
      </trkpt>
      <trkpt lat="47.66993" lon="-2.19436">
        <ele>61.7</ele>
        <extensions>
          <visugpx:TrkExtension xmlns:visugpx="https://www.visugpx.com/editgpx/">
            <visugpx:node>40</visugpx:node>
            </visugpx:TrkExtension>
        </extensions>
      </trkpt>
      <trkpt lat="47.66933" lon="-2.19414">
        <ele>60.9</ele>
      </trkpt>
      <trkpt lat="47.66874" lon="-2.19372">
        <ele>59.4</ele>
      </trkpt>
      <trkpt lat="47.66832" lon="-2.1936">
        <ele>58</ele>
      </trkpt>
      <trkpt lat="47.66739" lon="-2.19355">
        <ele>55.6</ele>
      </trkpt>
      <trkpt lat="47.66719" lon="-2.19314">
        <ele>54.9</ele>
      </trkpt>
      <trkpt lat="47.66703" lon="-2.19292">
        <ele>54.3</ele>
      </trkpt>
      <trkpt lat="47.66675" lon="-2.19266">
        <ele>53.2</ele>
      </trkpt>
      <trkpt lat="47.66598" lon="-2.19212">
        <ele>48.8</ele>
      </trkpt>
      <trkpt lat="47.66593" lon="-2.19201">
        <ele>48.5</ele>
        <extensions>
          <visugpx:TrkExtension xmlns:visugpx="https://www.visugpx.com/editgpx/">
            <visugpx:node>41</visugpx:node>
            </visugpx:TrkExtension>
        </extensions>
      </trkpt>
      <trkpt lat="47.6659" lon="-2.19193">
        <ele>48.1</ele>
      </trkpt>
      <trkpt lat="47.66575" lon="-2.19146">
        <ele>45.2</ele>
      </trkpt>
      <trkpt lat="47.66569" lon="-2.19092">
        <ele>43.4</ele>
      </trkpt>
      <trkpt lat="47.66566" lon="-2.19044">
        <ele>45.9</ele>
      </trkpt>
      <trkpt lat="47.6656" lon="-2.1902">
        <ele>47</ele>
      </trkpt>
      <trkpt lat="47.6655" lon="-2.18994">
        <ele>46.8</ele>
      </trkpt>
      <trkpt lat="47.66541" lon="-2.18978">
        <ele>45.9</ele>
      </trkpt>
      <trkpt lat="47.6654" lon="-2.18969">
        <ele>45.2</ele>
      </trkpt>
      <trkpt lat="47.66537" lon="-2.18955">
        <ele>43.6</ele>
      </trkpt>
      <trkpt lat="47.66524" lon="-2.18939">
        <ele>41.8</ele>
      </trkpt>
      <trkpt lat="47.66476" lon="-2.18869">
        <ele>35.1</ele>
        <extensions>
          <visugpx:TrkExtension xmlns:visugpx="https://www.visugpx.com/editgpx/">
            <visugpx:node>42</visugpx:node>
            </visugpx:TrkExtension>
        </extensions>
      </trkpt>
      <trkpt lat="47.66472" lon="-2.18863">
        <ele>35.2</ele>
      </trkpt>
      <trkpt lat="47.66441" lon="-2.18884">
        <ele>35.2</ele>
      </trkpt>
      <trkpt lat="47.66415" lon="-2.18866">
        <ele>31</ele>
        <extensions>
          <visugpx:TrkExtension xmlns:visugpx="https://www.visugpx.com/editgpx/">
            <visugpx:node>43</visugpx:node>
            </visugpx:TrkExtension>
        </extensions>
      </trkpt>
      <trkpt lat="47.66409" lon="-2.18861">
        <ele>30.4</ele>
      </trkpt>
      <trkpt lat="47.66402" lon="-2.18852">
        <ele>29.8</ele>
      </trkpt>
      <trkpt lat="47.66378" lon="-2.18808">
        <ele>28.7</ele>
        <extensions>
          <visugpx:TrkExtension xmlns:visugpx="https://www.visugpx.com/editgpx/">
            <visugpx:node>44</visugpx:node>
            </visugpx:TrkExtension>
        </extensions>
      </trkpt>
      <trkpt lat="47.66376" lon="-2.18798">
        <ele>29.7</ele>
        <time>2008-01-22T00:00:00Z</time>
      </trkpt>
      <trkpt lat="47.66306" lon="-2.18807">
        <ele>35.7</ele>
      </trkpt>
      <trkpt lat="47.66275" lon="-2.18804">
        <ele>38.4</ele>
        <time>2008-01-22T00:00:00Z</time>
      </trkpt>
      <trkpt lat="47.66155" lon="-2.18817">
        <ele>38</ele>
        <time>2008-01-22T00:00:00Z</time>
      </trkpt>
      <trkpt lat="47.66102" lon="-2.18788">
        <ele>39</ele>
        <time>2008-01-22T00:00:00Z</time>
      </trkpt>
      <trkpt lat="47.66039" lon="-2.18746">
        <ele>39</ele>
        <time>2008-01-22T00:00:00Z</time>
      </trkpt>
      <trkpt lat="47.65858" lon="-2.18735">
        <ele>36</ele>
        <time>2008-01-22T00:00:00Z</time>
      </trkpt>
      <trkpt lat="47.65828" lon="-2.18693">
        <ele>37</ele>
        <time>2008-01-22T00:00:00Z</time>
      </trkpt>
      <trkpt lat="47.65722" lon="-2.18645">
        <ele>35</ele>
        <time>2008-01-22T00:00:00Z</time>
      </trkpt>
      <trkpt lat="47.65623" lon="-2.18576">
        <ele>35</ele>
        <time>2008-01-22T00:00:00Z</time>
      </trkpt>
      <trkpt lat="47.65556" lon="-2.18538">
        <ele>36</ele>
        <time>2008-01-22T00:00:00Z</time>
      </trkpt>
      <trkpt lat="47.65462" lon="-2.18451">
        <ele>36</ele>
        <time>2008-01-22T00:00:00Z</time>
      </trkpt>
      <trkpt lat="47.65416" lon="-2.18425">
        <ele>36</ele>
        <time>2008-01-22T00:00:00Z</time>
      </trkpt>
      <trkpt lat="47.65375" lon="-2.18373">
        <ele>36</ele>
        <time>2008-01-22T00:00:00Z</time>
      </trkpt>
      <trkpt lat="47.65332" lon="-2.18292">
        <ele>36</ele>
        <time>2008-01-22T00:00:00Z</time>
      </trkpt>
      <trkpt lat="47.65301" lon="-2.18266">
        <ele>36</ele>
        <time>2008-01-22T00:00:00Z</time>
      </trkpt>
      <trkpt lat="47.65242" lon="-2.18047">
        <ele>38</ele>
        <time>2008-01-22T00:00:00Z</time>
      </trkpt>
      <trkpt lat="47.65227" lon="-2.17937">
        <ele>40</ele>
        <time>2008-01-22T00:00:00Z</time>
      </trkpt>
      <trkpt lat="47.65234" lon="-2.17837">
        <ele>42</ele>
        <time>2008-01-22T00:00:00Z</time>
      </trkpt>
      <trkpt lat="47.65216" lon="-2.1778">
        <ele>42</ele>
        <time>2008-01-22T00:00:00Z</time>
      </trkpt>
      <trkpt lat="47.65198" lon="-2.1775">
        <ele>43</ele>
        <time>2008-01-22T00:00:00Z</time>
      </trkpt>
      <trkpt lat="47.6506" lon="-2.17706">
        <ele>43</ele>
        <time>2008-01-22T00:00:00Z</time>
      </trkpt>
      <trkpt lat="47.65042" lon="-2.17652">
        <ele>45</ele>
        <time>2008-01-22T00:00:00Z</time>
      </trkpt>
      <trkpt lat="47.65003" lon="-2.17603">
        <ele>46</ele>
        <time>2008-01-22T00:00:00Z</time>
      </trkpt>
      <trkpt lat="47.64984" lon="-2.17532">
        <ele>46</ele>
        <time>2008-01-22T00:00:00Z</time>
      </trkpt>
      <trkpt lat="47.64887" lon="-2.17519">
        <ele>47</ele>
        <time>2008-01-22T00:00:00Z</time>
      </trkpt>
      <trkpt lat="47.64813" lon="-2.175">
        <ele>49</ele>
        <time>2008-01-22T00:00:00Z</time>
      </trkpt>
      <trkpt lat="47.64763" lon="-2.17463">
        <ele>50</ele>
        <time>2008-01-22T00:00:00Z</time>
      </trkpt>
      <trkpt lat="47.64596" lon="-2.17157">
        <ele>67</ele>
        <time>2008-01-22T00:00:00Z</time>
      </trkpt>
      <trkpt lat="47.64565" lon="-2.17175">
        <ele>67</ele>
        <time>2008-01-22T00:00:00Z</time>
      </trkpt>
      <trkpt lat="47.64472" lon="-2.17192">
        <ele>66</ele>
        <time>2008-01-22T00:00:00Z</time>
      </trkpt>
      <trkpt lat="47.644" lon="-2.1721">
        <ele>65</ele>
        <time>2008-01-22T00:00:00Z</time>
      </trkpt>
      <trkpt lat="47.64366" lon="-2.17221">
        <ele>64</ele>
        <time>2008-01-22T00:00:00Z</time>
      </trkpt>
      <trkpt lat="47.6431" lon="-2.17259">
        <ele>62</ele>
        <time>2008-01-22T00:00:00Z</time>
      </trkpt>
      <trkpt lat="47.64227" lon="-2.17299">
        <ele>60</ele>
        <time>2008-01-22T00:00:00Z</time>
      </trkpt>
      <trkpt lat="47.64179" lon="-2.17334">
        <ele>59</ele>
        <time>2008-01-22T00:00:00Z</time>
      </trkpt>
      <trkpt lat="47.64138" lon="-2.17379">
        <ele>59</ele>
        <time>2008-01-22T00:00:00Z</time>
      </trkpt>
      <trkpt lat="47.64122" lon="-2.17365">
        <ele>59</ele>
        <time>2008-01-22T00:00:00Z</time>
      </trkpt>
      <trkpt lat="47.64084" lon="-2.17289">
        <ele>59</ele>
        <time>2008-01-22T00:00:00Z</time>
      </trkpt>
      <trkpt lat="47.64051" lon="-2.17233">
        <ele>59</ele>
        <time>2008-01-22T00:00:00Z</time>
      </trkpt>
      <trkpt lat="47.64023" lon="-2.17197">
        <ele>59</ele>
        <time>2008-01-22T00:00:00Z</time>
      </trkpt>
      <trkpt lat="47.63975" lon="-2.17156">
        <ele>60</ele>
        <time>2008-01-22T00:00:00Z</time>
      </trkpt>
      <trkpt lat="47.63952" lon="-2.17122">
        <ele>59.3</ele>
        <time>2008-01-22T00:00:00Z</time>
      </trkpt>
      <trkpt lat="47.63936" lon="-2.17055">
        <ele>60</ele>
        <time>2008-01-22T00:00:00Z</time>
      </trkpt>
      <trkpt lat="47.63915" lon="-2.16991">
        <ele>60.4</ele>
        <time>2008-01-22T00:00:00Z</time>
      </trkpt>
      <trkpt lat="47.63859" lon="-2.16909">
        <ele>62.4</ele>
        <time>2008-01-22T00:00:00Z</time>
      </trkpt>
      <trkpt lat="47.63817" lon="-2.16838">
        <ele>63.6</ele>
        <time>2008-01-22T00:00:00Z</time>
      </trkpt>
      <trkpt lat="47.63781" lon="-2.16811">
        <ele>64</ele>
        <time>2008-01-22T00:00:00Z</time>
      </trkpt>
      <trkpt lat="47.6373" lon="-2.16763">
        <ele>64.1</ele>
        <time>2008-01-22T00:00:00Z</time>
      </trkpt>
      <trkpt lat="47.63701" lon="-2.16744">
        <ele>64</ele>
      </trkpt>
      <trkpt lat="47.63718" lon="-2.16605">
        <ele>65</ele>
      </trkpt>
      <trkpt lat="47.63665" lon="-2.16601">
        <ele>65</ele>
        <time>2008-01-22T00:00:00Z</time>
        <extensions>
          <visugpx:TrkExtension xmlns:visugpx="https://www.visugpx.com/editgpx/">
            <visugpx:node>45</visugpx:node>
            </visugpx:TrkExtension>
        </extensions>
      </trkpt>
    </trkseg>
  </trk>
</gpx>